Location: Bailey Volunteer Fire Department
(33.4359°N, 96.1680°W)
Time: 17:25:44
(UTC+00:00)

Cosmos 1602 Rocket - Pass Details

Date: 13 December 2025
Orbit: 596 x 626 km, 82.5° (Epoch: 13 January)

Event Time Altitude Azimuth Distance (km) Brightness Sun altitude
Rises 11:59:06 0° 176° (S) 2,891 7.3 -16.5°
Reaches altitude 10° 12:01:20 10° 173° (S) 1,990 6.5 -16.0°
Maximum altitude 12:05:40 59° 94° (E) 726 4.2 -15.2°
Drops below altitude 10° 12:10:02 10° 15° (NNE) 2,003 6.1 -14.3°
Sets 12:12:18 0° 12° (NNE) 2,912 6.9 -13.8°
